Flag for U.S.A. Weather past 2 weeks in Victorville, California, U.S.A.

Now
55 °F

Scattered clouds.


Feels Like: 52 °F
Forecast: 38 / 63 °F
Wind: 15 mph from West

Location: George Air Force Base / Victorvi

Current Time: Dec 20, 2014 at 4:13:22 PM

Latest Report: Dec 20, 2014 at 3:35 PM


Visibility: 10 mi

Pressure: 30.10 "Hg

Humidity: 67%

Dew point: 45 °F

Location of VictorvilleLocation

Historic Weather in Victorville — Graph

°F

Victorville temperature yesterday

Maximum temperature yesterday: 54 °F (at 12:55 PM)
Minimum temperature yesterday: 34 °F (at 2:15 AM)
Average temperature yesterday: 43 °F

Past Weeks' High & Low Weather Summary

 TemperatureHumidityPressure
High64 °F (Dec 9, 1:55 PM)100% (Dec 7, 4:55 AM)30.32 "Hg (Dec 7, 4:55 AM)
Low32 °F (Dec 14, 4:55 AM)32% (Dec 9, 2:55 PM)29.78 "Hg (Dec 12, 4:15 AM)
Average47 °F75%30.10 "Hg
* Reported Dec 5 2:15 PM — Dec 20 2:55 PM, Victorville, Weather by CustomWeather, © 2014

Note: Actual official high and low records may vary slightly from our data, if they occured in-between our weather recording intervals... More about our weather records

Advertising

Victorville weather history for previous 24 hours

 ConditionsComfort  
Time TempWeatherWind HumidityBarometerVisibility
2:55 PM
Dec 20
55 °FScattered clouds.15 mph67%30.10 "Hg10 mi
2:35 PM55 °FScattered clouds.14 mph67%30.10 "Hg10 mi
2:15 PM57 °FScattered clouds.13 mph63%30.10 "Hg10 mi
1:35 PM59 °FScattered clouds.18 mph55%30.11 "Hg10 mi
1:15 PM57 °FScattered clouds.12 mph63%30.11 "Hg10 mi
12:55 PM57 °FScattered clouds.13 mph63%30.13 "Hg10 mi
12:35 PM55 °FScattered clouds.8 mph67%30.13 "Hg10 mi
12:15 PM54 °FScattered clouds.5 mph67%30.14 "Hg10 mi
11:55 AM52 °FScattered clouds.No wind72%30.15 "Hg10 mi
11:15 AM50 °FScattered clouds.No wind76%30.16 "Hg10 mi
10:55 AM50 °FScattered clouds.No wind76%30.18 "Hg10 mi
10:35 AM48 °FScattered clouds.No wind82%30.18 "Hg10 mi
10:15 AM48 °FScattered clouds.No wind76%30.18 "Hg10 mi
9:55 AM48 °FCool.3 mph82%30.19 "Hg10 mi
9:15 AM46 °FScattered clouds.No wind82%30.19 "Hg10 mi
8:55 AM45 °FScattered clouds.3 mph81%30.19 "Hg10 mi
8:35 AM45 °FScattered clouds.5 mph76%30.18 "Hg10 mi
8:15 AM41 °FScattered clouds.7 mph81%30.17 "Hg10 mi
7:55 AM41 °FScattered clouds.5 mph81%30.17 "Hg10 mi
7:35 AM41 °FQuite cool.6 mph81%30.16 "Hg10 mi
7:15 AM41 °FQuite cool.6 mph81%30.15 "Hg10 mi
6:55 AM39 °FSunny.9 mph87%30.15 "Hg10 mi
6:35 AM39 °FClear.7 mph87%30.16 "Hg10 mi
6:15 AM39 °FClear.7 mph87%30.16 "Hg10 mi
5:55 AM39 °FClear.5 mph87%30.15 "Hg10 mi
5:15 AM39 °FChilly.5 mph81%30.13 "Hg10 mi
4:55 AM39 °FClear.6 mph87%30.12 "Hg10 mi
4:15 AM39 °FClear.No wind87%30.13 "Hg10 mi
3:55 AM39 °FClear.3 mph87%30.14 "Hg10 mi
3:15 AM39 °FClear.8 mph87%30.14 "Hg10 mi
2:55 AM39 °FClear.7 mph87%30.14 "Hg10 mi
2:15 AM39 °FClear.6 mph87%30.15 "Hg10 mi
1:55 AM39 °FClear.6 mph87%30.16 "Hg10 mi
1:35 AM39 °FClear.5 mph87%30.16 "Hg10 mi
1:15 AM43 °FClear.5 mph76%30.16 "Hg10 mi
12:55 AM43 °FQuite cool.3 mph76%30.17 "Hg10 mi
12:35 AM39 °FChilly.3 mph87%30.18 "Hg10 mi
12:15 AM41 °FQuite cool.3 mph81%30.19 "Hg10 mi
11:55 PM
Dec 19
43 °FQuite cool.No wind76%30.18 "Hg10 mi
11:15 PM43 °FQuite cool.6 mph81%30.17 "Hg10 mi
10:55 PM43 °FQuite cool.10 mph81%30.17 "Hg10 mi
10:15 PM43 °FQuite cool.5 mph87%30.19 "Hg10 mi
9:55 PM43 °FQuite cool.6 mph81%30.18 "Hg10 mi
9:35 PM43 °FClear.5 mph81%30.18 "Hg10 mi
9:15 PM43 °FClear.3 mph81%30.19 "Hg10 mi
8:55 PM43 °FClear.No wind81%30.19 "Hg10 mi
8:15 PM45 °FClear.3 mph76%30.17 "Hg10 mi
7:55 PM45 °FClear.No wind81%30.16 "Hg10 mi
7:35 PM46 °FClear.No wind76%30.16 "Hg10 mi
6:55 PM46 °FClear.7 mph76%30.15 "Hg10 mi
6:15 PM48 °FClear.6 mph76%30.15 "Hg10 mi
5:55 PM48 °FClear.No wind76%30.16 "Hg10 mi
5:35 PM50 °FClear.No wind67%30.17 "Hg10 mi
5:15 PM52 °FClear.No wind72%30.16 "Hg10 mi
4:55 PM52 °FClear.No wind62%30.15 "Hg10 mi
4:15 PM54 °FScattered clouds.No wind54%30.15 "Hg10 mi
Weather by CustomWeather, © 2014

See weather overviewHow to use our weather pages